H1 CPF 2 NER 2024 12 15 9 350 01 glonass106 H2 0705201 9106 32275 2024 12 15 0 0 0 2024 12 18 23 45 0 900 1 1 0 0 0 1 H9 10 0 60659 0.00000 0 9731939.795 -3790639.109 23279388.777 10 0 60659 900.00000 0 10801429.921 -1134499.087 23087400.513 10 0 60659 1800.00000 0 12047785.801 1386596.743 22447399.876 10 0 60659 2700.00000 0 13430520.441 3713918.083 21371768.108 10 0 60659 3600.00000 0 14899934.176 5797583.862 19881333.550 10 0 60659 4500.00000 0 16399148.662 7598392.918 18004973.145 10 0 60659 5400.00000 0 17866461.658 9089206.368 15779058.395 10 0 60659 6300.00000 0 19237924.690 10255824.937 13246755.749 10 0 60659 7200.00000 0 20450035.973 11097325.344 10457194.290 10 0 60659 8100.00000 0 21442435.819 11625842.373 7464516.232 10 0 60659 9000.00000 0 22160491.249 11865806.480 4326828.175 10 0 60659 9900.00000 0 22557660.768 11852669.541 1105073.313 10 0 60659 10800.00000 0 22597539.193 11631173.091 -2138153.485 10 0 60659 11700.00000 0 22255495.689 11253232.683 -5339824.440 10 0 60659 12600.00000 0 21519835.083 10775528.418 -8437707.332 10 0 60659 13500.00000 0 20392432.607 10256904.139 -11371579.208 10 0 60659 14400.00000 0 18888814.387 9755685.961 -14084401.220 10 0 60659 15300.00000 0 17037679.394 9327034.248 -16523431.163 10 0 60659 16200.00000 0 14879882.113 9020441.609 -18641251.715 10 0 60659 17100.00000 0 12466917.899 8877483.273 -20396694.161 10 0 60659 18000.00000 0 9858973.854 8929915.377 -21755639.576 10 0 60659 18900.00000 0 7122626.193 9198201.878 -22691681.979 10 0 60659 19800.00000 0 4328279.764 9690532.630 -23186640.812 10 0 60659 20700.00000 0 1547456.031 10402374.361 -23230913.037 10 0 60659 21600.00000 0 -1149957.989 11316573.817 -22823658.271 10 0 60659 22500.00000 0 -3698385.915 12404009.083 -21972813.589 10 0 60659 23400.00000 0 -6039052.531 13624762.025 -20694937.816 10 0 60659 24300.00000 0 -8122185.812 14929762.884 -19014888.359 10 0 60659 25200.00000 0 -9908839.621 16262838.151 -16965336.800 10 0 60659 26100.00000 0 -11372262.137 17563075.833 -14586132.530 10 0 60659 27000.00000 0 -12498754.043 18767408.751 -11923526.711 10 0 60659 27900.00000 0 -13287981.932 19813307.232 -9029271.536 10 0 60659 28800.00000 0 -13752735.142 20641467.752 -5959612.360 10 0 60659 29700.00000 0 -13918137.661 21198384.208 -2774192.443 10 0 60659 30600.00000 0 -13820349.648 21438693.284 465108.205 10 0 60659 31500.00000 0 -13504814.552 21327194.889 3695376.889 10 0 60659 32400.00000 0 -13024126.908 20840462.287 6853891.483 10 0 60659 33300.00000 0 -12435611.788 19967973.904 9879338.749 10 0 60659 34200.00000 0 -11798718.817 18712718.879 12713003.796 10 0 60659 35100.00000 0 -11172341.320 17091250.660 15299907.527 10 0 60659 36000.00000 0 -10612173.997 15133185.990 17589870.097 10 0 60659 36900.00000 0 -10168220.656 12880169.861 19538480.076 10 0 60659 37800.00000 0 -9882556.956 10384349.161 21107951.003 10 0 60659 38700.00000 0 -9787442.186 7706418.039 22267849.368 10 0 60659 39600.00000 0 -9903859.354 4913315.651 22995680.537 10 0 60659 40500.00000 0 -10240544.835 2075671.150 23277321.902 10 0 60659 41400.00000 0 -10793548.374 -734898.927 23107295.325 10 0 60659 42300.00000 0 -11546342.164 -3448529.703 22488873.867 10 0 60659 43200.00000 0 -12470474.831 -5999770.836 21434020.755 10 0 60659 44100.00000 0 -13526743.508 -8330063.756 19963161.522 10 0 60659 45000.00000 0 -14666835.546 -10389931.334 18104793.272 10 0 60659 45900.00000 0 -15835371.709 -12140789.859 15894937.984 10 0 60659 46800.00000 0 -16972265.767 -13556308.682 13376449.703 10 0 60659 47700.00000 0 -18015301.863 -14623261.521 10598188.343 10 0 60659 48600.00000 0 -18902821.612 -15341834.485 7614075.475 10 0 60659 49500.00000 0 -19576407.876 -15725378.524 4482049.971 10 0 60659 50400.00000 0 -19983451.918 -15799617.232 1262943.556 10 0 60659 51300.00000 0 -20079495.241 -15601343.907 -1980701.843 10 0 60659 52200.00000 0 -19830246.589 -15176663.318 -5185851.761 10 0 60659 53100.00000 0 -19213188.131 -14578852.949 -8290207.705 10 0 60659 54000.00000 0 -18218702.034 -13865934.658 -11233422.105 10 0 60659 54900.00000 0 -16850668.874 -13098059.938 -13958275.522 10 0 60659 55800.00000 0 -15126511.552 -12334819.889 -16411792.655 10 0 60659 56700.00000 0 -13076681.879 -11632594.101 -18546275.085 10 0 60659 57600.00000 0 -10743610.338 -11042050.880 -20320230.448 10 0 60659 58500.00000 0 -8180162.253 -10605904.704 -21699179.896 10 0 60659 59400.00000 0 -5447664.108 -10357025.783 -22656328.263 10 0 60659 60300.00000 0 -2613581.797 -10316981.556 -23173084.143 10 0 60659 61200.00000 0 251053.007 -10495071.691 -23239420.030 10 0 60659 62100.00000 0 3074361.739 -10887897.226 -22854065.778 10 0 60659 63000.00000 0 5786370.557 -11479482.031 -22024531.856 10 0 60659 63900.00000 0 8321680.768 -12241941.467 -20766962.016 10 0 60659 64800.00000 0 10621947.660 -13136670.139 -19105818.288 10 0 60659 65700.00000 0 12638065.339 -14115998.739 -17073404.314 10 0 60659 66600.00000 0 14331967.330 -15125250.247 -14709236.194 10 0 60659 67500.00000 0 15677968.888 -16105108.813 -12059272.935 10 0 60659 68400.00000 0 16663595.977 -16994201.438 -9175021.399 10 0 60659 69300.00000 0 17289867.475 -17731783.427 -6112533.176 10 0 60659 70200.00000 0 17571020.021 -18260414.151 -2931313.039 10 0 60659 71100.00000 0 17533688.421 -18528509.972 306839.566 10 0 60659 72000.00000 0 17215577.331 -18492666.284 3539033.122 10 0 60659 72900.00000 0 16663681.395 -18119650.412 6702506.965 10 0 60659 73800.00000 0 15932129.869 -17387980.966 9735850.461 10 0 60659 74700.00000 0 15079747.485 -16289026.730 12580194.462 10 0 60659 75600.00000 0 14167435.016 -14827578.444 15180351.835 10 0 60659 76500.00000 0 13255480.300 -13021868.938 17485885.043 10 0 60659 77400.00000 0 12400913.141 -10903040.214 19452080.341 10 0 60659 78300.00000 0 11655015.324 -8514079.088 21040810.209 10 0 60659 79200.00000 0 11061090.210 -5908265.050 22221267.908 10 0 60659 80100.00000 0 10652585.271 -3147194.152 22970560.590 10 0 60659 81000.00000 0 10451646.042 -298460.137 23274150.065 10 0 60659 81900.00000 0 10468161.857 2566911.899 23126133.210 10 0 60659 82800.00000 0 10699343.217 5377173.876 22529356.833 10 0 60659 83700.00000 0 11129848.529 8062593.837 21495364.816 10 0 60659 84600.00000 0 11732455.054 10558113.237 20044178.321 10 0 60659 85500.00000 0 12469246.263 12805813.020 18203912.851 10 0 60660 0.00000 0 13293266.094 14757086.721 16010239.149 10 0 60660 900.00000 0 14150571.558 16374431.914 13505696.402 10 0 60660 1800.00000 0 14982596.601 17632783.403 10738873.353 10 0 60660 2700.00000 0 15728729.519 18520336.469 7763468.660 10 0 60660 3600.00000 0 16328994.252 19038823.543 4637251.104 10 0 60660 4500.00000 0 16726722.754 19203234.203 1420938.537 10 0 60660 5400.00000 0 16871105.138 19040990.524 -1822982.480 10 0 60660 6300.00000 0 16719509.252 18590612.929 -5031473.158 10 0 60660 7200.00000 0 16239470.846 17899933.239 -8142171.007 10 0 60660 8100.00000 0 15410269.249 17023930.813 -11094605.948 10 0 60660 9000.00000 0 14224020.923 16022283.618 -13831379.861 10 0 60660 9900.00000 0 12686243.593 14956738.118 -16299286.042 10 0 60660 10800.00000 0 10815865.983 13888409.456 -18450346.452 10 0 60660 11700.00000 0 8644681.599 12875126.197 -20242746.345 10 0 60660 12600.00000 0 6216268.360 11968931.882 -21641648.032 10 0 60660 13500.00000 0 3584418.349 11213848.801 -22619868.061 10 0 60660 14400.00000 0 811142.381 10643998.151 -23158404.890 10 0 60660 15300.00000 0 -2035668.108 10282155.581 -23246807.017 10 0 60660 16200.00000 0 -4884825.137 10138802.654 -22883374.726 10 0 60660 17100.00000 0 -7664567.322 10211713.840 -22075191.710 10 0 60660 18000.00000 0 -10305309.342 10486096.073 -20837986.086 10 0 60660 18900.00000 0 -12742303.975 10935274.651 -19195823.525 10 0 60660 19800.00000 0 -14918106.566 11521896.299 -17180638.352 10 0 60660 20700.00000 0 -16784739.912 12199598.403 -14831611.647 10 0 60660 21600.00000 0 -18305470.100 12915073.757 -12194408.278 10 0 60660 22500.00000 0 -19456119.989 13610443.457 -9320287.602 10 0 60660 23400.00000 0 -20225866.360 14225837.480 -6265105.166 10 0 60660 24300.00000 0 -20617488.412 14702073.644 -3088224.944 10 0 60660 25200.00000 0 -20647058.314 14983321.423 148636.533 10 0 60660 26100.00000 0 -20343087.938 15019637.712 3382611.263 10 0 60660 27000.00000 0 -19745168.847 14769267.008 6550902.396 10 0 60660 27900.00000 0 -18902163.775 14200608.488 9592004.266 10 0 60660 28800.00000 0 -17870026.693 13293766.556 12446895.835 10 0 60660 29700.00000 0 -16709343.919 12041619.052 15060184.298 10 0 60660 30600.00000 0 -15482700.243 10450357.612 17381176.731 10 0 60660 31500.00000 0 -14251981.053 8539476.867 19364859.278 10 0 60660 32400.00000 0 -13075723.810 6341212.169 20972765.395 10 0 60660 33300.00000 0 -12006629.808 3899448.460 22173716.928 10 0 60660 34200.00000 0 -11089340.174 1268144.841 22944424.322 10 0 60660 35100.00000 0 -10358568.823 -1490660.645 23269934.979 10 0 60660 36000.00000 0 -9837670.007 -4309184.225 23143921.565 10 0 60660 36900.00000 0 -9537699.976 -7116471.842 22568804.985 10 0 60660 37800.00000 0 -9457011.669 -9841111.109 21555709.666 10 0 60660 38700.00000 0 -9581399.143 -12413968.321 20124251.817 10 0 60660 39600.00000 0 -9884785.656 -14770837.859 18302164.286 10 0 60660 40500.00000 0 -10330426.537 -16854894.708 16124764.658 10 0 60660 41400.00000 0 -10872576.509 -18618848.819 13634276.138 10 0 60660 42300.00000 0 -11458551.478 -20026711.981 10879013.676 10 0 60660 43200.00000 0 -12031098.122 -21055103.922 7912450.465 10 0 60660 44100.00000 0 -12530971.360 -21694043.288 4792182.432 10 0 60660 45000.00000 0 -12899610.758 -21947190.612 1578810.633 10 0 60660 45900.00000 0 -13081802.430 -21831533.315 -1665236.757 10 0 60660 46800.00000 0 -13028213.319 -21376526.254 -4876919.738 10 0 60660 47700.00000 0 -12697689.920 -20622724.296 -7993814.964 10 0 60660 48600.00000 0 -12059223.275 -19619964.893 -10955333.013 10 0 60660 49500.00000 0 -11093496.101 -18425177.683 -13703900.202 10 0 60660 50400.00000 0 -9793945.550 -17099913.852 -16186081.430 10 0 60660 51300.00000 0 -8167295.518 -15707699.815 -18353621.833 10 0 60660 52200.00000 0 -6233534.856 -14311327.005 -20164386.753 10 0 60660 53100.00000 0 -4025341.176 -12970192.105 -21583181.709 10 0 60660 54000.00000 0 -1586973.229 -11737799.713 -22582436.498 10 0 60660 54900.00000 0 1027322.857 -10659532.320 -23142740.387 10 0 60660 55800.00000 0 3755327.860 -9770781.094 -23253218.240 10 0 60660 56700.00000 0 6529201.112 -9095515.562 -22911740.543 10 0 60660 57600.00000 0 9278072.306 -8645351.738 -22124963.457 10 0 60660 58500.00000 0 11930766.170 -8419157.257 -20908198.227 10 0 60660 59400.00000 0 14418547.202 -8403209.416 -19285112.483 10 0 60660 60300.00000 0 16677770.744 -8571898.846 -17287269.162 10 0 60660 61200.00000 0 18652330.444 -8888948.511 -14953511.882 10 0 60660 62100.00000 0 20295800.642 -9309096.061 -12329208.575 10 0 60660 63000.00000 0 21573184.832 -9780168.015 -9465367.980 10 0 60660 63900.00000 0 22462197.795 -10245457.633 -6417646.221 10 0 60660 64800.00000 0 22954028.496 -10646305.525 -3245262.901 10 0 60660 65700.00000 0 23053552.681 -10924773.401 -9848.001 10 0 60660 66600.00000 0 22778987.155 -11026297.418 3225757.588 10 0 60660 67500.00000 0 22161001.246 -10902208.482 6398724.244 10 0 60660 68400.00000 0 21241323.786 -10512012.505 9447454.389 10 0 60660 69300.00000 0 20070905.006 -9825333.863 12312777.836 10 0 60660 70200.00000 0 18707711.367 -8823439.534 14939098.397 10 0 60660 71100.00000 0 17214246.509 -7500279.193 17275469.591 10 0 60660 72000.00000 0 15654902.704 -5862996.855 19276578.821 10 0 60660 72900.00000 0 14093253.969 -3931891.848 20903621.444 10 0 60660 73800.00000 0 12589404.067 -1739829.840 22125048.397 10 0 60660 74700.00000 0 11197500.035 668872.465 22917173.540 10 0 60660 75600.00000 0 9963514.672 3240043.614 23264629.601 10 0 60660 76500.00000 0 8923390.020 5911669.419 23160664.412 10 0 60660 77400.00000 0 8101618.729 8616238.276 22607271.985 10 0 60660 78300.00000 0 7510321.966 11283323.582 21615155.974 10 0 60660 79200.00000 0 7148861.814 13842297.153 20203526.003 10 0 60660 80100.00000 0 7004003.978 16225061.926 18399730.353 10 0 60660 81000.00000 0 7050623.634 18368691.190 16238731.512 10 0 60660 81900.00000 0 7252924.625 20217865.202 13762433.959 10 0 60660 82800.00000 0 7566120.644 21727004.078 11018876.522 10 0 60660 83700.00000 0 7938507.536 22862008.219 8061304.286 10 0 60660 84600.00000 0 8313839.237 23601533.655 4947137.600 10 0 60660 85500.00000 0 8633906.809 23937748.941 1736857.953 10 0 60661 0.00000 0 8841211.217 23876541.897 -1507167.338 10 0 60661 900.00000 0 8881616.327 23437167.444 -4721900.313 10 0 60661 1800.00000 0 8706868.919 22651351.608 -7844859.005 10 0 60661 2700.00000 0 8276878.572 21561889.451 -10815336.947 10 0 60661 3600.00000 0 7561659.656 20220796.172 -13575586.941 10 0 60661 4500.00000 0 6542852.330 18687089.536 -16071947.257 10 0 60661 5400.00000 0 5214757.140 17024297.252 -18255887.694 10 0 60661 6300.00000 0 3584838.295 15297794.391 -20084954.923 10 0 60661 7200.00000 0 1673673.238 13572082.942 -21523598.665 10 0 60661 8100.00000 0 -485650.641 11908127.836 -22543862.737 10 0 60661 9000.00000 0 -2848668.022 10360861.095 -23125927.750 10 0 60661 9900.00000 0 -5361150.120 8976958.522 -23258495.194 10 0 60661 10800.00000 0 -7961135.124 7792981.663 -22939005.693 10 0 60661 11700.00000 0 -10581290.786 6833962.264 -22173687.438 10 0 60661 12600.00000 0 -13151511.341 6112487.823 -20977433.929 10 0 60661 13500.00000 0 -15601641.210 5628325.692 -19373513.463 10 0 60661 14400.00000 0 -17864212.485 5368600.577 -17393115.894 10 0 60661 15300.00000 0 -19877082.498 5308517.011 -15074745.336 10 0 60661 16200.00000 0 -21585861.864 5412595.474 -12463470.495 10 0 60661 17100.00000 0 -22946031.955 5636369.162 -9610047.053 10 0 60661 18000.00000 0 -23924663.737 5928468.993 -6569929.204 10 0 60661 18900.00000 0 -24501666.463 6233008.019 -3402189.664 10 0 60661 19800.00000 0 -24670514.501 6492163.757 -168369.387 10 0 60661 20700.00000 0 -24438422.435 6648848.578 3068720.283 10 0 60661 21600.00000 0 -23825961.834 6649354.601 6246219.346 10 0 60661 22500.00000 0 -22866136.518 6445860.729 9302440.667 10 0 60661 23400.00000 0 -21602955.929 5998695.322 12178067.207 10 0 60661 24300.00000 0 -20089567.135 5278258.493 14817301.630 10 0 60661 25200.00000 0 -18386024.380 4266522.427 17168946.012 10 0 60661 26100.00000 0 -16556790.041 2958045.993 19187390.958 10 0 60661 27000.00000 0 -14668071.726 1360460.309 20833495.443 10 0 60661 27900.00000 0 -12785106.779 -505595.924 22075340.923 10 0 60661 28800.00000 0 -10969507.325 -2607089.560 22888845.772 10 0 60661 29700.00000 0 -9276776.092 -4899730.108 23258228.794 10 0 60661 30600.00000 0 -7754095.949 -7329584.619 23176313.358 10 0 60661 31500.00000 0 -6438484.560 -9835104.337 22644666.592 10 0 60661 32400.00000 0 -5355390.272 -12349480.074 21673571.009 10 0 60661 33300.00000 0 -4517787.048 -14803229.600 20281828.909 10 0 60661 34200.00000 0 -3925805.530 -17126910.465 18496402.918 10 0 60661 35100.00000 0 -3566915.056 -19253846.277 16351898.989 10 0 60661 36000.00000 0 -3416648.490 -21122753.599 13889901.115 10 0 60661 36900.00000 0 -3439839.069 -22680160.314 11158169.954 10 0 60661 37800.00000 0 -3592316.895 -23882514.717 8209720.213 10 0 60661 38700.00000 0 -3822993.318 -24697897.139 5101794.207 10 0 60661 39600.00000 0 -4076244.901 -25107262.293 1894751.274 10 0 60661 40500.00000 0 -4294495.835 -25105160.017 -1349105.375 10 0 60661 41400.00000 0 -4420889.002 -24699903.956 -4566741.396 10 0 60661 42300.00000 0 -4401932.023 -23913180.892 -7695619.576 10 0 60661 43200.00000 0 -4190005.427 -22779117.077 -10674919.235 10 0 60661 44100.00000 0 -3745625.861 -21342840.803 -13446722.496 10 0 60661 45000.00000 0 -3039367.605 -19658601.765 -15957143.780 10 0 60661 45900.00000 0 -2053360.050 -17787526.395 -18157380.194 10 0 60661 46800.00000 0 -782296.800 -15795103.604 -20004662.156 10 0 60661 47700.00000 0 766087.308 -13748506.564 -21463085.684 10 0 60661 48600.00000 0 2571092.530 -11713862.849 -22504310.293 10 0 60661 49500.00000 0 4599681.844 -9753587.158 -23108109.148 10 0 60661 50400.00000 0 6807634.687 -7923888.003 -23262761.069 10 0 60661 51300.00000 0 9141179.537 -6272552.203 -22965277.028 10 0 60661 52200.00000 0 11539038.059 -4837099.158 -22221456.960 10 0 60661 53100.00000 0 13934796.214 -3643381.342 -21045775.899 10 0 60661 54000.00000 0 16259504.038 -2704688.563 -19461101.650 10 0 60661 54900.00000 0 18444396.150 -2021392.459 -17498249.400 10 0 60661 55800.00000 0 20423619.779 -1581144.965 -15195381.767 10 0 60661 56700.00000 0 22136856.693 -1359621.252 -12597265.820 10 0 60661 57600.00000 0 23531729.694 -1321774.692 -9754401.374 10 0 60661 58500.00000 0 24565893.163 -1423549.887 -6722037.528 10 0 60661 59400.00000 0 25208720.371 -1613980.436 -3559096.680 10 0 60661 60300.00000 0 25442517.123 -1837581.882 -327027.145 10 0 60661 61200.00000 0 25263211.149 -2036937.843 2911392.919 10 0 60661 62100.00000 0 24680488.783 -2155369.224 6093276.673 10 0 60661 63000.00000 0 23717373.654 -2139572.929 9156850.727 10 0 60661 63900.00000 0 22409265.617 -1942118.001 12042654.182 10 0 60661 64800.00000 0 20802480.725 -1523693.187 14694691.142 10 0 60661 65700.00000 0 18952353.835 -855010.617 17061514.406 10 0 60661 66600.00000 0 16920983.621 81715.115 19097219.525 10 0 60661 67500.00000 0 14774714.379 1291775.261 20762330.416 10 0 60661 68400.00000 0 12581459.680 2767504.947 22024559.992 10 0 60661 69300.00000 0 10407979.241 4488371.076 22859431.694 10 0 60661 70200.00000 0 8317221.935 6421607.388 23250750.572 10 0 60661 71100.00000 0 6365844.869 8523371.280 23190915.324 10 0 60661 72000.00000 0 4602010.983 10740375.278 22681065.581 10 0 60661 72900.00000 0 3063555.939 13011926.456 21731061.698 10 0 60661 73800.00000 0 1776599.685 15272290.049 20359297.246 10 0 60661 74700.00000 0 754659.738 17453279.924 18592347.411 10 0 60661 75600.00000 0 -1697.643 19486968.920 16464459.493 10 0 60661 76500.00000 0 -504654.542 21308406.773 14016894.610 10 0 60661 77400.00000 0 -778395.812 22858232.610 11297132.635 10 0 60661 78300.00000 0 -857852.733 24085073.022 8357955.111 10 0 60661 79200.00000 0 -786989.226 24947625.322 5256423.407 10 0 60661 80100.00000 0 -616703.352 25416338.408 2052771.740 10 0 60661 81000.00000 0 -402433.204 25474620.340 -1190763.482 10 0 60661 81900.00000 0 -201568.976 25119521.488 -4411155.030 10 0 60661 82800.00000 0 -70781.362 24361864.058 -7545812.932 10 0 60661 83700.00000 0 -63380.141 23225812.229 -10533804.873 10 0 60661 84600.00000 0 -226815.599 21747900.623 -13317044.608 10 0 60661 85500.00000 0 -600429.428 19975561.801 -15841424.731 10 0 60662 0.00000 0 -1213551.136 17965214.697 -18057871.204 10 0 60662 900.00000 0 -2084021.749 15779993.062 -19923300.032 10 0 60662 1800.00000 0 -3217207.242 13487211.842 -21401454.477 10 0 60662 2700.00000 0 -4605545.416 11155673.954 -22463610.653 10 0 60662 3600.00000 0 -6228645.544 8852932.574 -23089134.905 10 0 60662 4500.00000 0 -8053937.908 6642622.061 -23265883.705 10 0 60662 5400.00000 0 -10037846.924 4581968.695 -22990438.344 10 0 60662 6300.00000 0 -12127439.635 2719584.507 -22268170.078 10 0 60662 7200.00000 0 -14262481.391 1093635.545 -21113134.600 10 0 60662 8100.00000 0 -16377813.412 -269539.925 -19547797.905 10 0 60662 9000.00000 0 -18405953.418 -1356306.648 -17602598.756 10 0 60662 9900.00000 0 -20279810.938 -2166065.597 -15315356.147 10 0 60662 10800.00000 0 -21935403.989 -2711032.565 -12730533.087 10 0 60662 11700.00000 0 -23314463.581 -3015472.729 -9898370.899 10 0 60662 12600.00000 0 -24366816.999 -3114424.693 -6873910.850 10 0 60662 13500.00000 0 -25052450.009 -3051969.040 -3715922.230 10 0 60662 14400.00000 0 -25343161.499 -2879115.575 -485757.936 10 0 60662 15300.00000 0 -25223741.211 -2651399.577 2753839.814 10 0 60662 16200.00000 0 -24692621.236 -2426289.532 5939960.042 10 0 60662 17100.00000 0 -23761974.142 -2260516.790 9010745.748 10 0 60662 18000.00000 0 -22457253.867 -2207440.619 11906594.704 10 0 60662 18900.00000 0 -20816198.897 -2314560.593 14571314.849 10 0 60662 19800.00000 0 -18887339.717 -2621281.719 16953211.905 10 0 60662 20700.00000 0 -16728073.169 -3157026.975 19006088.301 10 0 60662 21600.00000 0 -14402384.174 -3939777.124 20690134.517 10 0 60662 22500.00000 0 -11978309.745 -4975099.660 21972696.166 10 0 60662 23400.00000 0 -9525250.606 -6255708.230 22828902.607 10 0 60662 24300.00000 0 -7111241.812 -7761571.701 23242145.589 10 0 60662 25200.00000 0 -4800295.077 -9460569.236 23204399.194 10 0 60662 26100.00000 0 -2649922.498 -11309664.988 22716375.255 10 0 60662 27000.00000 0 -708943.599 -13256554.506 21787511.328 10 0 60662 27900.00000 0 984334.108 -15241715.308 20435791.303 10 0 60662 28800.00000 0 2403486.280 -17200777.150 18687401.678 10 0 60662 29700.00000 0 3534838.410 -19067114.019 16576229.575 10 0 60662 30600.00000 0 4377792.686 -20774550.392 14143211.427 10 0 60662 31500.00000 0 4944602.101 -22260069.122 11435544.259 10 0 60662 32400.00000 0 5259601.988 -23466407.868 8505774.147 10 0 60662 33300.00000 0 5357931.880 -24344435.238 5410779.042 10 0 60662 34200.00000 0 5283802.077 -24855206.663 2210665.427 10 0 60662 35100.00000 0 5088378.625 -24971613.204 -1032399.774 10 0 60662 36000.00000 0 4827376.646 -24679553.354 -4255399.166 10 0 60662 36900.00000 0 4558464.457 -23978577.929 -7395692.739 10 0 60662 37800.00000 0 4338589.018 -22881980.251 -10392239.231 10 0 60662 38700.00000 0 4221336.713 -21416327.258 -13186786.668 10 0 60662 39600.00000 0 4254441.925 -19620450.762 -15725008.365 10 0 60662 40500.00000 0 4477549.662 -17543940.848 -17957561.900 10 0 60662 41400.00000 0 4920327.608 -15245204.301 -19841050.240 10 0 60662 42300.00000 0 5601008.158 -12789169.205 -21338866.208 10 0 60662 43200.00000 0 6525422.746 -10244731.515 -22421904.034 10 0 60662 44100.00000 0 7686569.987 -7682050.060 -23069124.355 10 0 60662 45000.00000 0 9064736.580 -5169802.570 -23267961.966 10 0 60662 45900.00000 0 10628166.735 -2772516.724 -23014568.700 10 0 60662 46800.00000 0 12334252.788 -548086.877 -22313886.933 10 0 60662 47700.00000 0 14131197.807 1454420.751 -21179552.415 10 0 60662 48600.00000 0 15960081.130 3196583.826 -19633628.333 10 0 60662 49500.00000 0 17757240.840 4651985.889 -17706175.653 10 0 60662 50400.00000 0 19456873.709 5807068.855 -15434667.988 10 0 60662 51300.00000 0 20993743.907 6661441.676 -12863262.148 10 0 60662 52200.00000 0 22305887.001 7227633.616 -10041938.447 10 0 60662 53100.00000 0 23337195.786 7530303.850 -7025527.460 10 0 60662 54000.00000 0 24039779.321 7604942.076 -3872642.230 10 0 60662 54900.00000 0 24375995.957 7496116.152 -644536.905 10 0 60662 55800.00000 0 24320074.811 7255341.926 2596085.643 10 0 60662 56700.00000 0 23859257.454 6938666.275 5786293.659 10 0 60662 57600.00000 0 22994411.780 6604066.393 8864149.727 10 0 60662 58500.00000 0 21740092.267 6308775.977 11769913.237 10 0 60662 59400.00000 0 20124044.121 6106651.845 14447198.605 10 0 60662 60300.00000 0 18186172.041 6045692.595 16844066.759 10 0 60662 61200.00000 0 15977016.738 6165814.287 18914028.949 10 0 60662 62100.00000 0 13555802.710 6496977.100 20616943.798 10 0 60662 63000.00000 0 10988138.413 7057742.041 21919790.865 10 0 60662 63900.00000 0 8343464.211 7854318.637 22797306.326 10 0 60662 64800.00000 0 5692353.648 8880143.995 23232469.165 10 0 60662 65700.00000 0 3103779.426 10116011.457 23216829.008 10 0 60662 66600.00000 0 642456.731 11530744.178 22750669.630 10 0 60662 67500.00000 0 -1633626.750 13082386.354 21843005.099 10 0 60662 68400.00000 0 -3675392.607 14719863.274 20511408.475 10 0 60662 69300.00000 0 -5444475.556 16385041.793 18781675.996 10 0 60662 70200.00000 0 -6914575.316 18015106.001 16687332.626 10 0 60662 71100.00000 0 -8072301.024 19545149.504 14268987.807 10 0 60662 72000.00000 0 -8917473.745 20910876.318 11573553.137 10 0 60662 72900.00000 0 -9462875.151 22051297.468 8653336.472 10 0 60662 73800.00000 0 -9733453.576 22911310.171 5565029.460 10 0 60662 74700.00000 0 -9765021.456 23444050.960 2368607.907 10 0 60662 75600.00000 0 -9602499.636 23612923.312 -873833.705 10 0 60662 76500.00000 0 -9297783.249 23393213.778 -4099290.734 10 0 60662 77400.00000 0 -8907319.990 22773227.759 -7245075.955 10 0 60662 78300.00000 0 -8489503.874 21754896.298 -10250041.832 10 0 60662 79200.00000 0 -8101995.432 20353827.496 -13055773.126 10 0 60662 80100.00000 0 -7799082.472 18598799.655 -15607726.087 10 0 60662 81000.00000 0 -7629193.689 16530716.764 -17856291.666 10 0 60662 81900.00000 0 -7632670.941 14201069.552 -19757761.843 10 0 60662 82800.00000 0 -7839894.889 11669966.121 -21275180.161 10 0 60662 83700.00000 0 -8269843.700 9003814.119 -22379060.063 10 0 60662 84600.00000 0 -8929146.109 6272750.801 -23047957.286 10 0 60662 85500.00000 0 -9811669.294 3547927.840 -23268885.452 99